[Iaude] MPEC V224: 2023 VY7 [a=0.93,e=0.34,i=16.4,H=23.2]
    mpec at marsden.cfa.harvard.edu 
    mpec at marsden.cfa.harvard.edu
       
    Sun Nov 12 22:39:41 EST 2023
    
    
  
M.P.E.C. 2023-V224                            Issued 2023 November 13, 03:37 UT
     The Minor Planet Electronic Circulars contain information on unusual
         minor planets, routine data on comets and natural satellites,
         and occasional editorial announcements.  They are published
    on behalf of Division F of the International Astronomical Union by the
          Minor Planet Center, Smithsonian Astrophysical Observatory,
                          Cambridge, MA 02138, U.S.A.
			  
             Prepared using the Tamkin Foundation Computer Network
                              MPC at CFA.HARVARD.EDU
            URL https://www.minorplanetcenter.net/    ISSN 1523-6714
                                    2023 VY7                                    
Observations:
     K23V07Y* C2023 11 11.51979007 07 16.807+25 43 28.24         19.12cVEV224T05
     K23V07Y  C2023 11 11.52205007 07 17.825+25 43 03.54         18.92cVEV224T05
     K23V07Y  C2023 11 11.52725907 07 20.114+25 42 06.84         19.14cVEV224T05
     K23V07Y  C2023 11 11.53240907 07 22.440+25 41 12.08         19.21cVEV224T05
     K23V07Y  C2023 11 11.53876907 07 25.334+25 40 03.38         18.92GVEV224F52
     K23V07Y  C2023 11 11.55231707 07 31.427+25 37 36.54         18.87GVEV224F52
     K23V07Y 1C2023 11 11.93436 07 10 46.73 +24 24 36.0          20.1 VXEV224033
     K23V07Y 1C2023 11 11.93467 07 10 46.94 +24 24 32.5          20.3 VXEV224033
     K23V07Y 1C2023 11 11.94555 07 10 52.33 +24 22 27.9          19.9 VXEV224033
     K23V07Y 1C2023 11 11.94588 07 10 52.52 +24 22 24.1          20.3 VXEV224033
     K23V07Y 1C2023 11 11.94620 07 10 52.66 +24 22 20.2          20.6 VXEV224033
     K23V07Y 1C2023 11 11.94680 07 10 52.98 +24 22 13.3          20.4 VXEV224033
     K23V07Y IC2023 11 11.95056107 10 55.23 +24 21 39.2          19.4 GVEV224L01
     K23V07Y KC2023 11 11.95204307 10 56.00 +24 21 22.5          19.5 GVEV224L01
     K23V07Y IC2023 11 11.95352807 10 56.75 +24 21 06.0          19.4 GVEV224L01
     K23V07Y KC2023 11 11.95501407 10 57.48 +24 20 48.2          19.7 GVEV224L01
     K23V07Y KC2023 11 11.95649807 10 58.20 +24 20 31.4          19.7 GVEV224L01
     K23V07Y KB2023 11 11.97675407 11 08.19 +24 16 36.7          19.2 GXEV224595
     K23V07Y KB2023 11 11.99915807 11 19.24 +24 12 16.5          19.2 GXEV224595
     K23V07Y  C2023 11 12.08422 07 11 59.82 +23 57 56.2          19.3 GVEV224M28
     K23V07Y KB2023 11 12.34845 07 14 21.29 +23 02 08.6          19.9 GXEV224H36
     K23V07Y KB2023 11 12.35309 07 14 23.58 +23 01 11.3          20.7 GVEV224734
     K23V07Y KB2023 11 12.35436 07 14 24.16 +23 00 55.9          20.4 GXEV224H36
     K23V07Y KB2023 11 12.35947 07 14 26.74 +22 59 53.1          19.9 GVEV224734
     K23V07Y KB2023 11 12.36029 07 14 27.01 +22 59 43.2          19.8 GXEV224H36
     K23V07Y KB2023 11 12.36586 07 14 29.82 +22 58 33.9          19.8 GVEV224734
     K23V07Y KC2023 11 12.89917 07 19 24.65 +21 02 00.8          18.9 VqEV224L04
     K23V07Y KC2023 11 12.90294 07 19 26.68 +21 01 10.1          18.8 VqEV224L04
     K23V07Y KC2023 11 12.90660 07 19 28.75 +21 00 21.2          19.1 VqEV224L04
     K23V07Y KC2023 11 12.92578 07 19 39.83 +20 55 56.8                VEV224587
     K23V07Y KB2023 11 12.92608 07 19 39.33 +20 56 00.1          18.9 GXEV224M45
     K23V07Y KC2023 11 12.92809 07 19 41.13 +20 55 25.4          19.4  VEV224587
     K23V07Y KB2023 11 12.92821 07 19 40.50 +20 55 31.0          19.3 GXEV224M45
     K23V07Y KC2023 11 12.93039 07 19 42.40 +20 54 54.3                VEV224587
     K23V07Y KB2023 11 12.93106 07 19 42.05 +20 54 52.6          18.9 GXEV224M45
     K23V07Y KB2023 11 13.04254507 20 44.40 +20 29 18.5          19.4 GXEV224958
     K23V07Y  C2023 11 13.04606 07 20 44.63 +20 31 02.5          19.3 GVEV224M28
     K23V07Y  C2023 11 13.04813 07 20 45.63 +20 30 34.2          19.9 GVEV224M28
     K23V07Y KB2023 11 13.04965507 20 48.23 +20 27 40.3                XEV224958
     K23V07Y KB2023 11 13.05683107 20 52.21 +20 26 00.5          19.0 GXEV224958
Observer details:
033 Karl Schwarzschild Observatory, Tautenburg.  Observers S. Melnikov, C.
    Hogner, F. Ludwig, M. Hartmann, B. Stecklum.  Measurer B. Stecklum.
    1.34-m f/3 Schmidt + CCD.
587 Sormano.  Observers A. Fumagalli, A. Testa.  Measurer A. Testa.  0.5-m
    f/6.8 reflector + CCD.
595 Farra d'Isonzo.  Observer E. Pettarin.  0.40-m f/3.3 reflector + CMO.
734 Farpoint Observatory, Eskridge.  Observers D. Cromer, G. Hug, D. Goodin,
    R. Valentine.  Measurer D. Cromer.  0.69-m f/3.54 reflector + CMO.
958 Observatoire de Dax.  Observer P. Dupouy.  0.50-m f/4.5 Reflector + CMO.
F52 Pan-STARRS 2, Haleakala.  Observers J. Bulger, T. Lowe, P. Minguez, A.
    Schultz, I. Smith.  Measurers K. Chambers, T. de Boer, J. Fairlamb, H.
    Gao, M. Huber, C.-C. Lin, E. Magnier, Y. Ramanjooloo, R. Wainscoat, R.
    Weryk.  1.8-m Ritchey-Chretien + CCD.
H36 Sandlot Observatory, Scranton.  Observer G. Hug.  0.56-m f/4.8 reflector +
    CMO.
L01 Visnjan Observatory, Tican.  Observer K. Korlevic.  1.0-m f/2.9 reflector
    + CCD.
L04 ROASTERR-1 Observatory, Cluj-Napoca.  Observer L. Hudin.  0.3-m f/5
    reflector + CCD.
M28 Lesedi Telescope-SAAO Observatory, Sutherland.  Observers N. Erasmus, S.
    Potter, C. van Gend, S. Chandra, H. Worters.  Measurers T. Ngwane, N.
    Erasmus.  1.0-m f/8 Reflector + CCD.
M45 Starhopper Observatory, Sfantu Gheorghe.  Observer F. Ursache.  0.41-m
    f/7.5 reflector + CMO.
T05 ATLAS-HKO, Haleakala.  Observers L. Denneau, R. Siverd, J. Tonry, H.
    Weiland.  Measurers L. Denneau, N. Erasmus, A. Fitzsimmons, A. Lawrence,
    J. Robinson, R. Siverd, J. Tonry, H. Weiland.  0.5-m Reflector + CCD.
Orbital elements:
2023 VY7                                                 Earth MOID = 0.0262 AU
Epoch 2023 Sept. 13.0 TT = JDT 2460200.5                Veres                   
M 204.47093              (2000.0)            P               Q                  
n   1.09404678     Peri.  306.07896     -0.97370783     -0.03375715             
a   0.9327791      Node   233.08003     +0.08600805     -0.97024051             
e   0.3427923      Incl.   16.36716     -0.21093996     -0.23977864             
P   0.90           H   23.21          G   0.15           U   8                  
Residuals in seconds of arc
231111 T05  0.2+  0.3+    231111 L01  0.2-  0.9+    231112 L04  0.4+  0.4+
231111 T05  0.2+  0.1-    231111 L01  0.3-  0.2+    231112 587  0.1-  0.4+
231111 T05  0.6-  0.7-    231111 L01  0.5-  0.5+    231112 M45  0.1-  0.2-
231111 T05  0.5-  0.1+    231111 595  0.1-  0.3+    231112 587  0.2+  0.3+
231111 F52  0.0   0.0     231111 595  0.6+  0.4-    231112 M45  0.1+  0.5-
231111 F52  0.1+  0.0     231112 M28  1.6-  0.9+    231112 587  0.2+  0.2+
231111 033  0.3-  0.2+    231112 H36  1.2+  0.8-    231112 M45  0.1+  0.3-
231111 033  0.4+  0.3+    231112 734  0.6+  0.5-    231113 958  0.1-  1.6-
231111 033  0.3-  0.5+    231112 H36  0.3+  0.5-    231113 M28  0.1-  0.2-
231111 033  0.1+  0.5+    231112 734  0.6+  0.2+    231113 M28  1.3-  0.2+
231111 033  0.2-  0.3+    231112 H36  0.9-  0.2+    231113 958  0.2-  1.5-
231111 033  0.1+  0.3+    231112 734  0.6-  0.1+    231113 958  1.3+  1.8-
231111 L01  0.9-  0.0     231112 L04  0.0   0.1-
231111 L01  0.4-  0.4+    231112 L04  0.5-  0.0
Ephemeris:
2023 VY7                 a,e,i = 0.93, 0.34, 16                  q = 0.6130
Date    TT    R. A. (2000) Decl.     Delta      r    Elong.  Phase     V
2023 10 14    05 12 30.6 +47 13 20   0.2983  1.1605   116.1    50.5    22.8
...
2023 10 29    05 56 16.8 +43 34 42   0.1788  1.1017   123.2    49.0    21.5
...
2023 11 06    06 30 44.4 +36 54 58   0.1185  1.0646   125.5    49.3    20.6
...
2023 11 12    07 11 15.2 +24 13 07   0.07790 1.0343   122.8    53.6    19.7
2023 11 13    07 20 15.4 +20 40 19   0.07203 1.0290   121.3    55.3    19.6
2023 11 14    07 30 10.2 +16 29 27   0.06658 1.0237   119.2    57.5    19.5
...
2023 11 20    08 56 58.1 -23 36 05   0.05031 0.9908    91.4    85.7    19.7
...
2023 11 28    12 11 43.6 -59 41 10   0.08314 0.9440    57.0   118.8    22.4
...
2023 12 13    15 25 51.7 -59 39 47   0.1933  0.8496    41.5   129.8    25.0
M. P. C. Staff               (C) Copyright 2023 MPC           M.P.E.C. 2023-V224
    
    
More information about the Iaude
mailing list